Regional Weather Roundup
Issued by NWS

Home | Current Version | Previous Version | Text Only | Print | Product List | Glossary Off
Versions: 1 2 3 4 5 6 7 8 9 10 11 12 13 14 15 16 17 18 19 20 21 22 23 24 25 26 27 28 29 30 31 32 33 34 35 36 37 38 39 40 41 42 43 44 45 46 47 48 49 50

000
ASUS45 KBOU 271807
RWRCO

WEATHER ROUNDUP FOR COLORADO
NATIONAL WEATHER SERVICE DENVER/BOULDER CO
1100 AM MST THU NOV 27 2014

NOTE: "FAIR" INDICATES FEW OR NO CLOUDS BELOW 12000 FEET WITH NO
SIGNIFICANT WEATHER AND/OR OBSTRUCTIONS TO VISIBILITY.

COZ001>005-013-030-031-271900-
...NORTHWEST COLORADO...

CITY           SKY/WX    TMP DP  RH WIND       PRES   REMARKS
CRAIG          CLOUDY    40  28  62 CALM      30.38F
HAYDEN         CLOUDY    36  25  64 SE8       30.38F
MEEKER         PTSUNNY   43  27  53 CALM      30.41F
MOUNT WERNER   NOT AVBL
STEAMBOAT SPGS CLOUDY    31  25  80 CALM      30.39F
WALDEN         PTSUNNY   41  19  42 SW16G23   30.35F
$$

COZ006>008-011-271900-
...WEST CENTRAL VALLEYS...

CITY           SKY/WX    TMP DP  RH WIND       PRES   REMARKS
GRAND JUNCTION SUNNY     43  27  53 NW3       30.45F
MONTROSE       SUNNY     45  24  43 W3        30.47F
EAGLE          PTSUNNY   36  27  69 CALM      30.46F
RIFLE          MOSUNNY   34  26  72 CALM      30.47F
DELTA          SUNNY     45  28  51 E3        30.47F
NUCLA          SUNNY     43  27  52 CALM      30.51F
$$

COZ017>023-064>068-271900-
...SOUTHWEST COLORADO...

CITY           SKY/WX    TMP DP  RH WIND       PRES   REMARKS
DURANGO        SUNNY     45  24  43 E3        30.47F
CORTEZ         SUNNY     47  19  33 S3        30.46F
PAGOSA SPRINGS SUNNY     47  15  28 CALM      30.49F
TELLURIDE      SUNNY     41  17  38 SE5       30.55F
WOLF CREEK PAS SUNNY     37   3  23 MISG      30.62F
$$

COZ009-010-012-014-032>034-037-058>063-271900-
...CENTRAL COLORADO...

CITY           SKY/WX    TMP DP  RH WIND       PRES   REMARKS
ASPEN          MOSUNNY   39  22  50 N3        30.44F
BUENA VISTA    SUNNY     46  15  28 SE3       30.40F
COPPER MTN     SUNNY     32  16  51 W7        30.51F WCI  26
BERTHOUD PASS  NOT AVBL
COTTONWOOD PAS SUNNY     45   5  19 W7        30.44F
GUNNISON       SUNNY     27  18  69 CALM      30.58F
KREMMLING      SUNNY     43  21  42 NE3       30.42F
LEADVILLE      SUNNY     39  10  30 NW13      30.46S
MONARCH PASS   SUNNY     23  18  80 MISG      30.61F
SALIDA         SUNNY     52  16  24 SW17G29   30.45F
SUNLIGHT       MOSUNNY   32  27  80 SW3       30.53F
WILKERSON PASS SUNNY     37   7  28 W7        30.47F
$$

COZ069>075-271900-
...SAN LUIS VALLEY/SANGRE DE CRISTO MOUNTAINS...

CITY           SKY/WX    TMP DP  RH WIND       PRES   REMARKS
ALAMOSA        SUNNY     43  20  39 NW3       30.49F
LA VETA PASS   PTSUNNY   34  19  55 SW9G17    30.49F WCI  26
SAGUACHE       SUNNY     43  21  42 W3        30.50F
$$

COZ035-036-038>040-271900-
...NORTHERN COLORADO FRONT RANGE...

CITY           SKY/WX    TMP DP  RH WIND       PRES   REMARKS
DENVER INTL AP CLOUDY    62  14  15 SW16      30.20F
DMNS CITY PARK   N/A     61  17  18 NE2       30.20S
AURORA         PTSUNNY   62  13  15 SW16      30.21F
FRONT RANGE AP PTSUNNY   63  14  15 SW10G17   30.22F
ERIE MUNI ARPT CLOUDY    65  11  12 W3        30.18F
BOULDER MUN AP CLOUDY    61  16  17 SE6       30.18F
CENTENNIAL     CLOUDY    62  11  13 SW12      30.23F
BROOMFIELD     PTSUNNY   64  12  13 W14G23    30.22S
FORT COLLINS   MOSUNNY   43  30  61 S6        30.18F
LONGMONT       MOSUNNY   64  15  15 W10G23    30.19F
$$

COZ041-046-047-076>085-087-088-271900-
...PIKES PEAK/PALMER DIVIDE AND SOUTHERN FOOTHILLS...

CITY           SKY/WX    TMP DP  RH WIND       PRES   REMARKS
COLO. SPRINGS  PTSUNNY   63   6  10 CALM      30.28F
A. F. ACADEMY  PTSUNNY   61   6  11 W10G22    30.27F
ELLICOTT       NOT AVBL
FALCON         NOT AVBL
FORT CARSON    PTSUNNY   52  23  32 N1        30.25F
LIMON          PTSUNNY   57  26  30 NE3       30.22F
MONUMENT HILL  PTSUNNY   57  10  15 W12       30.28F
TRINIDAD       PTSUNNY   51  33  50 CALM      30.29F
$$

COZ042>045-048>051-090-091-271900-
...NORTHEAST COLORADO...

CITY           SKY/WX    TMP DP  RH WIND       PRES   REMARKS
GREELEY ARPT   MOSUNNY   37  25  60 SW5       30.18F
AKRON          PTSUNNY   48  27  44 SW14      30.15F
BURLINGTON     SUNNY     56  27  32 SW17      30.19F
WRAY           SUNNY     58  32  36 S13       30.16F
STERLING       PTSUNNY   37  32  81 S9        30.15F
HOLYOKE        SUNNY     54  37  54 S7        30.15F
FORT MORGAN    PTSUNNY   35  28  76 W7        30.17F WCI  29
$$

COZ086-089-092>099-271900-
...SOUTHEAST COLORADO...

CITY           SKY/WX    TMP DP  RH WIND       PRES   REMARKS
PUEBLO         CLOUDY    38  27  64 S3        30.25F
LA JUNTA       MOSUNNY   47  28  47 SW7       30.24F
LAMAR          MOSUNNY   45  25  45 SW5       30.23F
SPRINGFIELD      N/A     62  25  24 S9        30.24F
$$


USA.gov is the U.S. government's official web portal to all federal, state and local government web resources and services.